CW2401 Weather Reports


time (UTC)temp
C
wind
direction
speed
KPH
gust
KPH
rain 1hr
cm
rain 24hr
cm
rain mn
cm
humidity
%
barometer
mb
20260502210916 14 337 1.6 6.4 0.00 0.00 0.00 66 1012.6
20260502210512 14 320 3.2 11.3 0.00 0.00 0.00 67 1012.7
20260502210314 14 319 3.2 11.3 0.00 0.00 0.00 66 1012.8
20260502210111 14 0 3.2 11.3 0.00 0.00 0.00 67 1012.8
20260502205912 14 330 3.2 11.3 0.00 0.00 0.00 66 1012.8
20260502205711 14 338 1.6 8.0 0.00 0.00 0.00 66 1012.8
20260502205510 14 5 1.6 8.0 0.00 0.00 0.00 67 1012.8
20260502205310 14 0 1.6 4.8 0.00 0.00 0.00 67 1012.8
20260502205110 14 11 1.6 6.4 0.00 0.00 0.00 67 1012.8
20260502204907 14 319 1.6 9.7 0.00 0.00 0.00 67 1012.8
20260502204707 14 319 1.6 9.7 0.00 0.00 0.00 66 1012.7
20260502204506 14 319 1.6 9.7 0.00 0.00 0.00 66 1012.7
20260502204306 14 315 1.6 9.7 0.00 0.00 0.00 66 1012.7
20260502204104 14 355 1.6 9.7 0.00 0.00 0.00 68 1012.7
20260502203903 14 355 1.6 3.2 0.00 0.00 0.00 68 1012.8
20260502203503 14 355 1.6 6.4 0.00 0.00 0.00 68 1012.8
20260502203303 14 355 1.6 8.0 0.00 0.00 0.00 69 1012.7
20260502203102 14 355 1.6 8.0 0.00 0.00 0.00 68 1012.7
20260502202700 14 68 3.2 8.0 0.00 0.00 0.00 67 1012.7
20260502201452 15 321 1.6 4.8 0.00 0.00 0.00 68 1012.7
20260502201253 15 315 1.6 4.8 0.00 0.00 0.00 68 1012.7
20260502201055 15 315 1.6 8.0 0.00 0.00 0.00 69 1012.7
20260502200853 15 169 1.6 8.0 0.00 0.00 0.00 69 1012.7
20260502200452 15 169 1.6 8.0 0.00 0.00 0.00 68 1012.7
20260502200253 15 171 1.6 8.0 0.00 0.00 0.00 68 1012.7
20260502195851 15 9 1.6 8.0 0.00 0.00 0.00 69 1012.8
20260502195650 15 355 3.2 11.3 0.00 0.00 0.00 69 1012.8
20260502195451 15 355 3.2 11.3 0.00 0.00 0.00 68 1012.8
20260502195252 15 294 3.2 11.3 0.00 0.00 0.00 68 1012.8
20260502195050 15 355 3.2 11.3 0.00 0.00 0.00 68 1012.8
20260502194650 15 42 3.2 8.0 0.00 0.00 0.00 68 1012.8
20260502194448 15 17 1.6 6.4 0.00 0.00 0.00 69 1012.9
20260502194250 15 36 1.6 8.0 0.00 0.00 0.00 68 1012.8
20260502194050 15 189 1.6 8.0 0.00 0.00 0.00 69 1012.9
20260502193849 15 339 1.6 8.0 0.00 0.00 0.00 70 1013.0
20260502193650 15 342 1.6 8.0 0.00 0.00 0.00 70 1013.0
20260502193247 15 355 1.6 6.4 0.00 0.00 0.00 70 1013.0
20260502193049 15 355 1.6 9.7 0.00 0.00 0.00 70 1013.0
20260502192646 15 355 1.6 9.7 0.00 0.00 0.00 70 1013.0
20260502192446 15 355 1.6 9.7 0.00 0.00 0.00 69 1013.0
20260502192245 15 355 1.6 9.7 0.00 0.00 0.00 68 1013.0
20260502192044 15 0 1.6 8.0 0.00 0.00 0.00 68 1013.0
20260502191842 15 5 1.6 8.0 0.00 0.00 0.00 68 1012.9
20260502191644 15 145 1.6 6.4 0.00 0.00 0.00 68 1013.0
20260502191442 15 57 1.6 9.7 0.00 0.00 0.00 68 1012.9
20260502191243 15 321 3.2 9.7 0.00 0.00 0.00 68 1012.9
20260502190842 15 328 3.2 9.7 0.00 0.00 0.00 68 1013.0
20260502190640 15 11 1.6 9.7 0.00 0.00 0.00 69 1013.0
20260502190441 15 338 1.6 8.0 0.00 0.00 0.00 71 1013.0
20260502190241 15 348 1.6 8.0 0.00 0.00 0.00 71 1013.0
20260502190041 15 346 3.2 8.0 0.00 0.00 0.00 70 1013.0
20260502185841 15 11 3.2 8.0 0.00 0.00 0.00 70 1013.0
20260502185643 15 12 3.2 9.7 0.00 0.00 0.00 71 1013.0
20260502185443 15 346 3.2 9.7 0.00 0.00 0.00 71 1013.0
20260502185240 15 327 3.2 9.7 0.00 0.00 0.00 71 1013.0
20260502185040 15 109 3.2 9.7 0.00 0.00 0.00 70 1013.0
20260502184841 15 344 3.2 9.7 0.00 0.00 0.00 71 1013.1
20260502184641 15 294 1.6 6.4 0.00 0.00 0.00 73 1013.1
20260502184442 15 350 1.6 4.8 0.00 0.00 0.00 73 1013.1
20260502184241 15 348 1.6 4.8 0.00 0.00 0.00 74 1013.1
20260502184041 14 0 1.6 4.8 0.00 0.00 0.00 74 1013.2
20260502183841 14 0 0.0 4.8 0.00 0.00 0.00 74 1013.2
20260502183440 14 334 0.0 1.6 0.00 0.00 0.00 74 1013.2
20260502183241 14 244 0.0 3.2 0.00 0.00 0.00 73 1013.3
20260502183042 14 345 1.6 6.4 0.00 0.00 0.00 74 1013.4
20260502182841 14 344 1.6 8.0 0.00 0.00 0.00 73 1013.4
20260502182441 14 344 1.6 8.0 0.00 0.00 0.00 72 1013.4
20260502182041 14 288 1.6 8.0 0.00 0.00 0.00 74 1013.4
20260502181843 14 0 1.6 6.4 0.00 0.00 0.00 74 1013.4
20260502181642 14 0 1.6 6.4 0.00 0.00 0.00 74 1013.5
20260502181441 14 0 1.6 6.4 0.00 0.00 0.00 73 1013.5
20260502181242 14 0 1.6 6.4 0.00 0.00 0.00 74 1013.5
20260502181043 14 28 1.6 4.8 0.00 0.00 0.00 74 1013.6
20260502180840 14 344 1.6 4.8 0.00 0.00 0.00 74 1013.5
20260502180641 14 344 0.0 4.8 0.00 0.00 0.00 75 1013.5
20260502180442 14 355 0.0 6.4 0.00 0.00 0.00 76 1013.5
20260502180240 14 355 1.6 6.4 0.00 0.00 0.00 74 1013.5
20260502170440 13 306 3.2 8.0 0.00 0.00 0.00 76 1013.9
20260502170239 13 317 3.2 8.0 0.00 0.00 0.00 78 1013.9
20260502164231 13 305 1.6 8.0 0.00 0.00 0.00 78 1014.0
20260502163830 13 319 1.6 8.0 0.00 0.00 0.00 76 1013.9
20260502163630 13 210 1.6 8.0 0.00 0.00 0.00 76 1014.0
20260502163429 13 121 1.6 8.0 0.00 0.00 0.00 78 1014.0
20260502163027 13 44 3.2 8.0 0.00 0.00 0.00 78 1014.2
20260502162826 13 240 1.6 8.0 0.00 0.00 0.00 78 1014.4
20260502162626 13 155 1.6 6.4 0.00 0.00 0.00 79 1014.5
20260502162427 13 332 1.6 6.4 0.00 0.00 0.00 78 1014.5
20260502162027 13 282 0.0 6.4 0.00 0.00 0.00 81 1014.8
20260502161824 13 283 1.6 6.4 0.00 0.00 0.00 81 1014.9
20260502161225 13 300 1.6 6.4 0.00 0.00 0.00 80 1015.2
20260502161025 13 298 1.6 4.8 0.00 0.00 0.00 81 1015.2
20260502160825 13 296 1.6 4.8 0.00 0.00 0.00 82 1015.2
20260502160621 13 177 0.0 3.2 0.00 0.00 0.00 83 1015.3
20260502160218 13 177 0.0 1.6 0.00 0.00 0.00 82 1015.3
20260502151957 13 227 0.0 3.2 0.00 0.00 0.00 80 1014.4
20260502151553 13 328 0.0 4.8 0.00 0.00 0.00 80 1014.5
20260502151352 13 328 0.0 4.8 0.00 0.00 0.00 81 1014.6
20260502151153 13 328 0.0 4.8 0.00 0.00 0.00 81 1014.6
20260502150950 13 328 0.0 4.8 0.00 0.00 0.00 80 1014.6
20260502150750 13 313 0.0 3.2 0.00 0.00 0.00 81 1014.7
20260502150550 13 311 0.0 4.8 0.00 0.00 0.00 81 1014.6
20260502150348 13 311 0.0 4.8 0.00 0.00 0.00 81 1014.7
20260502150146 13 311 0.0 4.8 0.00 0.00 0.00 81 1014.9
20260502140121 12 325 1.6 8.0 0.00 0.00 0.00 80 1014.6
20260502130659 12 326 1.6 6.4 0.00 0.00 0.00 80 1014.0
20260502130458 12 327 1.6 6.4 0.00 0.00 0.00 80 1014.0
20260502130255 12 315 1.6 6.4 0.00 0.00 0.00 80 1014.1
20260502123443 11 351 1.6 6.4 0.00 0.00 0.00 82 1014.2
20260502123242 11 355 1.6 6.4 0.00 0.00 0.00 82 1014.2
20260502123040 11 346 1.6 6.4 0.00 0.00 0.00 83 1014.1
20260502122441 11 0 1.6 9.7 0.00 0.00 0.00 83 1014.2
20260502122238 11 0 1.6 9.7 0.00 0.00 0.00 83 1014.1
20260502122039 11 0 1.6 9.7 0.00 0.00 0.00 84 1014.1
20260502121834 11 355 1.6 4.8 0.00 0.00 0.00 84 1014.1
20260502121433 11 26 0.0 6.4 0.00 0.00 0.00 84 1013.9
20260502121234 11 44 1.6 6.4 0.00 0.00 0.00 85 1013.8
20260502121033 11 57 1.6 8.0 0.00 0.00 0.00 85 1013.8
20260502120832 11 57 1.6 8.0 0.00 0.00 0.00 85 1013.8
20260502120233 11 0 1.6 8.0 0.00 0.00 0.00 86 1013.8
20260502115833 11 17 0.0 6.4 0.00 0.00 0.00 86 1013.8
20260502115029 11 18 1.6 6.4 0.00 0.00 0.00 87 1013.9
20260502114828 11 5 1.6 6.4 0.00 0.00 0.00 87 1013.9
20260502113830 11 5 0.0 6.4 0.00 0.00 0.00 87 1013.9
20260502113631 11 5 0.0 3.2 0.00 0.00 0.00 87 1013.9
20260502113430 11 5 0.0 3.2 0.00 0.00 0.00 89 1013.9
20260502113228 11 5 0.0 3.2 0.00 0.00 0.00 89 1013.9
20260502113028 11 5 1.6 6.4 0.00 0.00 0.00 89 1013.9
20260502112625 11 36 0.0 6.4 0.00 0.00 0.00 88 1013.9
20260502112424 11 36 0.0 6.4 0.00 0.00 0.00 88 1013.8
20260502112225 11 36 0.0 6.4 0.00 0.00 0.00 88 1013.7
20260502112023 11 54 0.0 1.6 0.00 0.00 0.00 89 1013.8
20260502111825 11 54 0.0 1.6 0.00 0.00 0.00 88 1013.7
20260502111625 11 54 0.0 3.2 0.00 0.00 0.00 88 1013.7
20260502111424 11 54 0.0 3.2 0.00 0.00 0.00 88 1013.7
20260502110820 11 54 0.0 3.2 0.00 0.00 0.00 88 1013.8
20260502110421 11 333 0.0 3.2 0.00 0.00 0.00 88 1013.9
20260502110218 11 331 0.0 3.2 0.00 0.00 0.00 88 1013.8
20260502110019 11 331 0.0 3.2 0.00 0.00 0.00 89 1013.9
20260502105818 11 331 0.0 4.8 0.00 0.00 0.00 89 1013.9
20260502105618 11 326 0.0 4.8 0.00 0.00 0.00 89 1014.0
20260502105417 11 326 0.0 4.8 0.00 0.00 0.00 89 1013.9
20260502105219 11 326 0.0 4.8 0.00 0.00 0.00 89 1013.8
20260502105013 11 326 0.0 4.8 0.00 0.00 0.00 89 1013.8
20260502104814 11 5 0.0 6.4 0.00 0.00 0.00 89 1013.8
20260502104412 11 5 0.0 6.4 0.00 0.00 0.00 89 1013.9
20260502104211 11 5 0.0 6.4 0.00 0.00 0.00 89 1013.9
20260502104010 11 5 0.0 6.4 0.00 0.00 0.00 90 1014.0
20260502103809 11 338 0.0 6.4 0.00 0.00 0.00 90 1014.0
20260502103408 11 338 1.6 6.4 0.00 0.00 0.00 90 1014.1
20260502103206 11 339 1.6 6.4 0.00 0.00 0.00 90 1014.0
20260502103005 11 340 1.6 6.4 0.00 0.00 0.00 90 1014.0
20260502102804 11 355 1.6 8.0 0.00 0.00 0.00 90 1014.1
20260502102603 11 355 1.6 8.0 0.00 0.00 0.00 90 1014.0
20260502102402 11 338 1.6 8.0 0.00 0.00 0.00 90 1014.0
20260502102203 11 338 1.6 8.0 0.00 0.00 0.00 91 1014.0
20260502102002 11 338 1.6 8.0 0.00 0.00 0.00 91 1014.1
20260502101800 11 338 1.6 4.8 0.00 0.00 0.00 91 1014.2
20260502101357 11 69 0.0 3.2 0.00 0.00 0.00 91 1014.2
20260502101154 11 69 0.0 1.6 0.00 0.00 0.00 91 1014.2
20260502100952 11 69 0.0 1.6 0.00 0.00 0.00 91 1014.1
20260502100751 11 69 0.0 1.6 0.00 0.00 0.00 91 1014.1
20260502100550 11 69 0.0 1.6 0.00 0.00 0.00 91 1014.2
20260502100348 11 69 0.0 3.2 0.00 0.00 0.00 91 1014.1
20260502100146 11 69 1.6 3.2 0.00 0.00 0.00 91 1014.1
20260502091526 11 69 0.0 0.0 0.00 0.00 0.00 91 1014.1
20260502091325 11 69 0.0 0.0 0.00 0.00 0.00 91 1014.0
20260502090926 11 69 0.0 0.0 0.00 0.00 0.00 91 1014.1
20260502090727 11 69 0.0 0.0 0.00 0.00 0.00 91 1014.0
20260502090523 11 69 0.0 0.0 0.00 0.00 0.00 91 1014.0
20260502090322 11 69 0.0 0.0 0.00 0.00 0.00 91 1013.9
20260502090122 11 69 0.0 0.0 0.00 0.00 0.00 91 1013.9
20260502071222 10 69 0.0 1.6 0.00 0.00 0.00 91 1013.3
20260502071021 10 69 0.0 1.6 0.00 0.00 0.00 91 1013.2
20260502070820 10 69 0.0 1.6 0.00 0.00 0.00 91 1013.2
20260502070618 10 69 0.0 1.6 0.00 0.00 0.00 91 1013.2
20260502070419 10 69 0.0 0.0 0.00 0.00 0.00 91 1013.3
20260502070219 10 70 0.0 0.0 0.00 0.00 0.00 91 1013.3
20260502070017 10 70 0.0 0.0 0.00 0.00 0.00 91 1013.3
20260502065817 10 69 0.0 0.0 0.00 0.00 0.00 91 1013.2
20260502065617 10 70 0.0 0.0 0.00 0.00 0.00 91 1013.2
20260502065219 10 69 0.0 0.0 0.00 0.00 0.00 91 1013.2
20260502065018 10 69 0.0 0.0 0.00 0.00 0.00 91 1013.2
20260502064619 10 70 0.0 0.0 0.00 0.00 0.00 91 1013.3
20260502064417 10 70 0.0 0.0 0.00 0.00 0.00 91 1013.3
20260502064217 10 69 0.0 0.0 0.00 0.00 0.00 91 1013.3
20260502064015 10 70 0.0 0.0 0.00 0.00 0.00 91 1013.4
20260502063815 10 70 0.0 0.0 0.00 0.00 0.00 91 1013.4
20260502063616 10 69 0.0 0.0 0.00 0.00 0.00 91 1013.3
20260502063417 10 70 0.0 0.0 0.00 0.00 0.00 91 1013.3
20260502063214 10 70 0.0 0.0 0.00 0.00 0.00 91 1013.3
20260502063014 10 70 0.0 0.0 0.00 0.00 0.00 91 1013.3
20260502062815 10 70 0.0 0.0 0.00 0.00 0.00 91 1013.3
20260502062615 10 70 0.0 0.0 0.00 0.00 0.00 91 1013.3
20260502062413 10 70 0.0 0.0 0.00 0.00 0.00 91 1013.2
20260502062213 10 70 0.0 0.0 0.00 0.00 0.00 91 1013.2
20260502061814 10 70 0.0 0.0 0.00 0.00 0.00 91 1013.2
20260502061614 10 69 0.0 0.0 0.00 0.00 0.00 91 1013.3
20260502061413 10 70 0.0 0.0 0.00 0.00 0.00 91 1013.3
20260502061215 10 70 0.0 0.0 0.00 0.00 0.00 91 1013.4
20260502061015 10 69 0.0 0.0 0.00 0.00 0.00 91 1013.3
20260502060814 10 70 0.0 0.0 0.00 0.00 0.00 91 1013.3
20260502060615 10 69 0.0 0.0 0.00 0.00 0.00 91 1013.3
20260502060413 10 70 0.0 0.0 0.00 0.00 0.00 91 1013.3
20260502060214 10 70 0.0 0.0 0.00 0.00 0.00 91 1013.3
20260502060013 10 69 0.0 0.0 0.00 0.00 0.00 91 1013.3
20260502055813 10 70 0.0 0.0 0.00 0.00 0.00 91 1013.3
20260502055613 10 70 0.0 0.0 0.00 0.00 0.00 91 1013.2
20260502055414 10 70 0.0 0.0 0.00 0.00 0.00 91 1013.2
20260502055015 10 69 0.0 0.0 0.00 0.00 0.00 91 1013.3
20260502054813 10 69 0.0 0.0 0.00 0.00 0.00 90 1013.4
20260502054613 10 69 0.0 0.0 0.00 0.00 0.00 90 1013.4
20260502054414 10 69 0.0 0.0 0.00 0.00 0.00 90 1013.4
20260502054213 10 69 0.0 0.0 0.00 0.00 0.00 90 1013.5
20260502054013 10 70 0.0 0.0 0.00 0.00 0.00 90 1013.6
20260502053815 10 69 0.0 0.0 0.00 0.00 0.00 90 1013.6
20260502053615 10 70 0.0 0.0 0.00 0.00 0.00 90 1013.6
20260502053214 10 70 0.0 0.0 0.00 0.00 0.00 90 1013.7
20260502052813 10 70 0.0 0.0 0.00 0.00 0.00 90 1013.7
20260502052614 10 70 0.0 0.0 0.00 0.00 0.00 90 1013.7
20260502052414 10 70 0.0 0.0 0.00 0.00 0.00 90 1013.7
20260502052214 10 70 0.0 0.0 0.00 0.00 0.00 90 1013.6
20260502052013 10 70 0.0 0.0 0.00 0.00 0.00 90 1013.6
20260502051814 10 70 0.0 0.0 0.00 0.00 0.00 90 1013.6
20260502051614 10 69 0.0 0.0 0.00 0.00 0.00 90 1013.6
20260502051413 10 70 0.0 0.0 0.00 0.00 0.00 90 1013.6
20260502051214 10 69 0.0 0.0 0.00 0.00 0.00 90 1013.6
20260502050414 10 70 0.0 0.0 0.00 0.00 0.00 90 1013.7
20260502050014 10 70 0.0 0.0 0.00 0.00 0.00 90 1013.7
20260502045814 10 69 0.0 0.0 0.00 0.00 0.00 90 1013.7
20260502045613 10 70 0.0 0.0 0.00 0.00 0.00 90 1013.7
20260502045413 11 69 0.0 0.0 0.00 0.00 0.00 90 1013.8
20260502045015 11 69 0.0 0.0 0.00 0.00 0.00 90 1013.8
20260502044815 11 70 0.0 0.0 0.00 0.00 0.00 90 1013.8
20260502044613 11 69 0.0 0.0 0.00 0.00 0.00 90 1014.0
20260502044414 11 69 0.0 0.0 0.00 0.00 0.00 90 1014.0
20260502044213 11 69 0.0 0.0 0.00 0.00 0.00 90 1014.0
20260502043815 11 70 0.0 0.0 0.00 0.00 0.00 90 1014.0
20260502043613 11 70 0.0 0.0 0.00 0.00 0.00 90 1014.0
20260502043414 11 70 0.0 0.0 0.00 0.00 0.00 90 1014.0
20260502043213 11 70 0.0 0.0 0.00 0.00 0.00 90 1014.0
20260502042813 11 70 0.0 0.0 0.00 0.00 0.00 89 1014.0
20260502042613 11 70 0.0 0.0 0.00 0.00 0.00 89 1014.0
20260502042411 11 70 0.0 0.0 0.00 0.00 0.00 89 1013.9
20260502041212 11 70 0.0 0.0 0.00 0.00 0.00 89 1014.0
20260502041011 11 70 0.0 0.0 0.00 0.00 0.00 89 1014.1
20260502040612 11 70 0.0 0.0 0.00 0.00 0.00 89 1014.1
20260502040412 11 70 0.0 0.0 0.00 0.00 0.00 89 1014.0
20260502040214 11 70 0.0 0.0 0.00 0.00 0.00 89 1014.0
20260502040012 11 69 0.0 0.0 0.00 0.00 0.00 89 1014.1
20260502035611 11 69 0.0 0.0 0.00 0.00 0.00 89 1014.1
20260502035413 11 69 0.0 0.0 0.00 0.00 0.00 89 1014.2
20260502035211 11 69 0.0 0.0 0.00 0.00 0.00 89 1014.2
20260502035013 11 69 0.0 0.0 0.00 0.00 0.00 89 1014.2
20260502034812 11 70 0.0 0.0 0.00 0.00 0.00 89 1014.2
20260502034609 11 69 0.0 0.0 0.00 0.00 0.00 89 1014.2
20260502034409 11 70 0.0 0.0 0.00 0.00 0.00 89 1014.2
20260502034209 11 70 0.0 0.0 0.00 0.00 0.00 89 1014.3
20260502034010 11 70 0.0 0.0 0.00 0.00 0.00 89 1014.3
20260502033810 11 69 0.0 0.0 0.00 0.00 0.00 89 1014.3
20260502033408 11 70 0.0 0.0 0.00 0.00 0.00 89 1014.3
20260502033208 11 69 0.0 0.0 0.00 0.00 0.00 88 1014.3
20260502033008 11 70 0.0 0.0 0.00 0.00 0.00 88 1014.2
20260502032808 11 69 0.0 0.0 0.00 0.00 0.00 88 1014.2
20260502032607 11 69 0.0 0.0 0.00 0.00 0.00 88 1014.2
20260502032409 11 70 0.0 0.0 0.00 0.00 0.00 89 1014.2
20260502032206 11 69 0.0 0.0 0.00 0.00 0.00 88 1014.2
20260502032006 11 69 0.0 0.0 0.00 0.00 0.00 88 1014.1
20260502031805 11 69 0.0 0.0 0.00 0.00 0.00 88 1014.1
20260502031606 11 70 0.0 0.0 0.00 0.00 0.00 88 1014.1
20260502031407 11 69 0.0 0.0 0.00 0.00 0.00 88 1014.2
20260502031205 11 69 0.0 0.0 0.00 0.00 0.00 88 1014.2
20260502031006 11 69 0.0 0.0 0.00 0.00 0.00 88 1014.2
20260502030805 11 70 0.0 0.0 0.00 0.00 0.00 88 1014.2
20260502030604 11 69 0.0 0.0 0.00 0.00 0.00 88 1014.2
20260502030405 11 70 0.0 0.0 0.00 0.00 0.00 88 1014.2
20260502030205 11 70 0.0 0.0 0.00 0.00 0.00 88 1014.2
20260502025803 11 69 0.0 0.0 0.00 0.00 0.00 87 1014.2
20260502025603 11 70 0.0 0.0 0.00 0.00 0.00 87 1014.3
20260502025401 11 69 0.0 0.0 0.00 0.00 0.00 87 1014.3
20260502025201 11 70 0.0 0.0 0.00 0.00 0.00 88 1014.3
20260502025001 11 69 0.0 0.0 0.00 0.00 0.00 88 1014.3
20260502024759 11 69 0.0 0.0 0.00 0.00 0.00 87 1014.3
20260502024600 11 70 0.0 0.0 0.00 0.00 0.00 87 1014.4
20260502024359 11 69 0.0 0.0 0.00 0.00 0.00 87 1014.4
20260502024200 11 70 0.0 0.0 0.00 0.00 0.00 87 1014.4
20260502024001 11 69 0.0 0.0 0.00 0.00 0.00 87 1014.3
20260502023759 11 70 0.0 0.0 0.00 0.00 0.00 87 1014.3
20260502023359 11 69 0.0 0.0 0.00 0.00 0.00 87 1014.3
20260502023200 11 69 0.0 0.0 0.00 0.00 0.00 87 1014.3
20260502023000 11 69 0.0 0.0 0.00 0.00 0.00 87 1014.3
20260502022801 11 69 0.0 0.0 0.00 0.00 0.00 87 1014.3
20260502022559 11 69 0.0 0.0 0.00 0.00 0.00 87 1014.3
20260502022400 11 69 0.0 0.0 0.00 0.00 0.00 87 1014.2
20260502022159 11 70 0.0 0.0 0.00 0.00 0.00 87 1014.2
20260502021958 11 70 0.0 0.0 0.00 0.00 0.00 87 1014.2
20260502021757 11 70 0.0 0.0 0.00 0.00 0.00 87 1014.3
20260502021558 11 70 0.0 0.0 0.00 0.00 0.00 86 1014.4
20260502021358 11 70 0.0 0.0 0.00 0.00 0.00 86 1014.4
20260502021157 11 69 0.0 0.0 0.00 0.00 0.00 86 1014.4
20260502020759 12 70 0.0 0.0 0.00 0.00 0.00 86 1014.4
20260502020557 12 70 0.0 0.0 0.00 0.00 0.00 86 1014.4
20260502020359 12 70 0.0 0.0 0.00 0.00 0.00 86 1014.3
20260502020200 12 70 0.0 0.0 0.00 0.00 0.00 86 1014.3
20260502015957 12 70 0.0 0.0 0.00 0.00 0.00 86 1014.3
20260502015758 12 70 0.0 0.0 0.00 0.00 0.00 86 1014.3
20260502015557 12 70 0.0 0.0 0.00 0.00 0.00 86 1014.3
20260502015355 12 70 0.0 0.0 0.00 0.00 0.00 86 1014.3
20260502014956 12 70 0.0 0.0 0.00 0.00 0.00 85 1014.4
20260502014757 12 70 0.0 0.0 0.00 0.00 0.00 85 1014.4
20260502014556 12 70 0.0 0.0 0.00 0.00 0.00 85 1014.4
20260502014356 12 69 0.0 0.0 0.00 0.00 0.00 85 1014.4
20260502014156 12 70 0.0 0.0 0.00 0.00 0.00 85 1014.4
20260502013956 12 70 0.0 0.0 0.00 0.00 0.00 85 1014.3
20260502013755 12 70 0.0 0.0 0.00 0.00 0.00 85 1014.2
20260502013355 12 70 0.0 0.0 0.00 0.00 0.00 85 1014.3
20260502013156 12 69 0.0 0.0 0.00 0.00 0.00 85 1014.3
20260502012955 12 70 0.0 0.0 0.00 0.00 0.00 85 1014.3
20260502012755 12 70 0.0 0.0 0.00 0.00 0.00 85 1014.3
20260502012556 12 70 0.0 0.0 0.00 0.00 0.00 85 1014.3
20260502012356 12 69 0.0 0.0 0.00 0.00 0.00 84 1014.3
20260502011956 12 70 0.0 0.0 0.00 0.00 0.00 84 1014.2
20260502011755 12 69 0.0 0.0 0.00 0.00 0.00 84 1014.2
20260502011557 12 69 0.0 0.0 0.00 0.00 0.00 84 1014.2
20260502011355 12 70 0.0 0.0 0.00 0.00 0.00 84 1014.1
20260502011156 12 70 0.0 0.0 0.00 0.00 0.00 84 1014.1
20260502010956 12 70 0.0 0.0 0.00 0.00 0.00 84 1014.2
20260502010755 12 70 0.0 0.0 0.00 0.00 0.00 84 1014.2
20260502010555 12 70 0.0 0.0 0.00 0.00 0.00 84 1014.3
20260502010355 12 70 0.0 0.0 0.00 0.00 0.00 84 1014.2
20260502010155 12 70 0.0 0.0 0.00 0.00 0.00 83 1014.1
20260502005955 12 69 0.0 0.0 0.00 0.00 0.00 83 1014.0
20260502005755 12 70 0.0 0.0 0.00 0.00 0.00 83 1013.9
20260502005556 12 69 0.0 0.0 0.00 0.00 0.00 83 1013.9
20260502005356 12 69 0.0 0.0 0.00 0.00 0.00 83 1013.8
20260502005157 12 70 0.0 0.0 0.00 0.00 0.00 83 1013.8
20260502004755 12 70 0.0 0.0 0.00 0.00 0.00 83 1013.7
20260502004555 12 70 0.0 0.0 0.00 0.00 0.00 82 1013.8
20260502004355 12 69 0.0 0.0 0.00 0.00 0.00 82 1013.8
20260502004157 12 70 0.0 0.0 0.00 0.00 0.00 82 1013.7
20260502003955 12 70 0.0 0.0 0.00 0.00 0.00 82 1013.9
20260502003755 12 70 0.0 0.0 0.00 0.00 0.00 82 1013.9
20260502003557 12 70 0.0 0.0 0.00 0.00 0.00 82 1013.8
20260502003355 13 70 0.0 0.0 0.00 0.00 0.00 81 1013.8
20260502003156 13 70 0.0 0.0 0.00 0.00 0.00 81 1013.7
20260502002957 13 69 0.0 0.0 0.00 0.00 0.00 81 1013.6
20260502002755 13 69 0.0 0.0 0.00 0.00 0.00 81 1013.5
20260502002555 13 69 0.0 0.0 0.00 0.00 0.00 80 1013.6
20260502002355 13 70 0.0 0.0 0.00 0.00 0.00 80 1013.6
20260502001755 13 69 0.0 0.0 0.00 0.00 0.00 80 1013.5
20260502001553 13 70 0.0 0.0 0.00 0.00 0.00 80 1013.5
20260502001355 13 69 0.0 0.0 0.00 0.00 0.00 79 1013.4
20260502001154 13 69 0.0 0.0 0.00 0.00 0.00 79 1013.4
20260502000953 13 70 0.0 0.0 0.00 0.00 0.00 79 1013.4
20260502000752 13 69 0.0 0.0 0.00 0.00 0.00 79 1013.4
20260502000551 13 70 0.0 0.0 0.00 0.00 0.00 79 1013.5
20260501235946 13 70 0.0 0.0 0.00 0.00 0.00 78 1013.4
20260501235746 13 69 0.0 0.0 0.00 0.00 0.00 78 1013.4
20260501235543 13 70 0.0 0.0 0.00 0.00 0.00 78 1013.4
20260501235345 13 69 0.0 0.0 0.00 0.00 0.00 78 1013.3
20260501235145 13 69 0.0 3.2 0.00 0.00 0.00 78 1013.3
20260501234944 13 69 0.0 3.2 0.00 0.00 0.00 77 1013.4
20260501234744 13 69 0.0 3.2 0.00 0.00 0.00 77 1013.4
20260501234543 14 69 0.0 3.2 0.00 0.00 0.00 77 1013.4
20260501234339 14 69 0.0 3.2 0.00 0.00 0.00 77 1013.4
20260501234141 14 45 0.0 0.0 0.00 0.00 0.00 77 1013.4
20260501233939 14 45 0.0 0.0 0.00 0.00 0.00 77 1013.5
20260501233539 14 45 0.0 3.2 0.00 0.00 0.00 77 1013.6
20260501233339 14 45 0.0 3.2 0.00 0.00 0.00 76 1013.6
20260501232939 14 45 0.0 3.2 0.00 0.00 0.00 77 1013.5
20260501232540 14 45 0.0 1.6 0.00 0.00 0.00 77 1013.4
20260501232137 14 45 0.0 1.6 0.00 0.00 0.00 77 1013.4
20260501231738 14 44 0.0 0.0 0.00 0.00 0.00 77 1013.4
20260501231536 14 44 0.0 1.6 0.00 0.00 0.00 77 1013.4
20260501231335 15 44 0.0 1.6 0.00 0.00 0.00 78 1013.4
20260501230932 15 43 0.0 1.6 0.00 0.00 0.00 77 1013.4
20260501230732 15 43 0.0 1.6 0.00 0.00 0.00 77 1013.4
20260501230531 15 43 0.0 1.6 0.00 0.00 0.00 77 1013.4
20260501230131 15 43 0.0 4.8 0.00 0.00 0.00 77 1013.5
20260501225734 15 43 1.6 4.8 0.00 0.00 0.00 76 1013.4
20260501225532 15 43 1.6 4.8 0.00 0.00 0.00 77 1013.4
20260501225332 15 43 1.6 4.8 0.00 0.00 0.00 76 1013.4
20260501225129 15 145 0.0 4.8 0.00 0.00 0.00 76 1013.4
20260501224930 15 147 0.0 3.2 0.00 0.00 0.00 76 1013.3
20260501224530 15 147 0.0 3.2 0.00 0.00 0.00 75 1013.2
20260501224128 15 147 0.0 3.2 0.00 0.00 0.00 74 1013.3
20260501223928 15 147 0.0 4.8 0.00 0.00 0.00 74 1013.4
20260501223727 15 147 0.0 4.8 0.00 0.00 0.00 74 1013.3
20260501223527 15 147 0.0 4.8 0.00 0.00 0.00 73 1013.4
20260501223329 15 148 0.0 4.8 0.00 0.00 0.00 73 1013.5
20260501223127 15 148 1.6 4.8 0.00 0.00 0.00 73 1013.5
20260501222726 15 187 1.6 4.8 0.00 0.00 0.00 73 1013.5
20260501222526 15 199 1.6 4.8 0.00 0.00 0.00 73 1013.6
20260501222327 15 221 1.6 4.8 0.00 0.00 0.00 73 1013.6
20260501221922 15 68 0.0 4.8 0.00 0.00 0.00 72 1013.6
20260501221721 15 68 0.0 4.8 0.00 0.00 0.00 72 1013.6
20260501221319 15 42 0.0 4.8 0.00 0.00 0.00 71 1013.7
20260501221121 15 40 1.6 4.8 0.00 0.00 0.00 71 1013.7
20260501220917 15 41 1.6 4.8 0.00 0.00 0.00 71 1013.7
20260501220718 16 39 1.6 4.8 0.00 0.00 0.00 71 1013.6
20260501220516 16 59 1.6 8.0 0.00 0.00 0.00 70 1013.6
20260501220313 16 92 1.6 8.0 0.00 0.00 0.00 70 1013.7
20260501220111 16 92 1.6 8.0 0.00 0.00 0.00 70 1013.7
20260501215911 16 107 1.6 8.0 0.00 0.00 0.00 69 1013.7
20260501215710 16 96 1.6 8.0 0.00 0.00 0.00 69 1013.7
20260501215510 16 93 1.6 4.8 0.00 0.00 0.00 70 1013.7
20260501215309 16 90 1.6 4.8 0.00 0.00 0.00 70 1013.7
20260501215109 16 90 1.6 6.4 0.00 0.00 0.00 69 1013.7
20260501214907 16 90 1.6 6.4 0.00 0.00 0.00 69 1013.8
20260501214508 16 82 1.6 6.4 0.00 0.00 0.00 68 1013.8
20260501214308 16 69 1.6 6.4 0.00 0.00 0.00 68 1013.8
20260501214105 16 86 1.6 4.8 0.00 0.00 0.00 68 1013.9
20260501213706 16 81 1.6 4.8 0.00 0.00 0.00 67 1013.8
20260501213507 16 80 1.6 4.8 0.00 0.00 0.00 67 1013.8
20260501213306 16 115 1.6 4.8 0.00 0.00 0.00 68 1013.8
20260501213109 16 115 1.6 4.8 0.00 0.00 0.00 68 1013.8
20260501212903 16 115 1.6 4.8 0.00 0.00 0.00 67 1013.8
20260501212706 16 115 1.6 4.8 0.00 0.00 0.00 67 1013.8
20260501212505 16 115 0.0 4.8 0.00 0.00 0.00 67 1013.8
20260501212301 16 115 0.0 4.8 0.00 0.00 0.00 67 1013.8
20260501212102 17 82 0.0 3.2 0.00 0.00 0.00 68 1013.8
20260501211900 17 82 0.0 3.2 0.00 0.00 0.00 68 1013.8
20260501211659 17 78 0.0 3.2 0.00 0.00 0.00 68 1013.9
20260501211500 17 78 0.0 3.2 0.00 0.00 0.00 68 1013.8
20260501211258 17 78 1.6 4.8 0.00 0.00 0.00 67 1013.9
20260501211057 17 78 0.0 4.8 0.00 0.00 0.00 67 1013.9